When you browse on this site, cookies collect data to enhance your experience and personalize the content and advertising you see.
Visit our Privacy Policy to learn more. By continuing to use the site, you agree to this use of cookies and data.
  • In Deutschland
  • Länderverzeichnis
  • Für 7 Tage
  • Wassertemperatur
  • Wetterkarte
  • Widgets
  • user-avatar
    Anmelden

    Stündliche Wetter Nikolo-Pavlovskoe

    Heute, 24 Februar, Montag

    Zeit Temperatur Niederschläge Wind Luftdruck Luftfeuchtigkeit
    00:00 -7°C° 0 mm 3 m/S 743 mmHg 89%
    01:00 -8°C° 0 mm 3 m/S 742 mmHg 90%
    02:00 -8°C° 0 mm 3 m/S 742 mmHg 90%
    03:00 -8°C° 0 mm 3 m/S 741 mmHg 91%
    04:00 -8°C° 0 mm 3 m/S 740 mmHg 92%
    05:00 -8°C° 0 mm 3 m/S 740 mmHg 90%
    06:00 -7°C° 0 mm 3 m/S 739 mmHg 87%
    07:00 -8°C° 0 mm 4 m/S 738 mmHg 84%
    08:00 -7°C° 0 mm 4 m/S 738 mmHg 83%
    09:00 -6°C° 0 mm 5 m/S 737 mmHg 82%
    10:00 -6°C° 0 mm 6 m/S 737 mmHg 79%
    11:00 -5°C° 0.1 mm 6 m/S 736 mmHg 82%
    12:00 -5°C° 0.1 mm 6 m/S 736 mmHg 85%
    13:00 -5°C° 0.1 mm 6 m/S 735 mmHg 88%
    14:00 -4°C° 0.3 mm 5 m/S 735 mmHg 90%
    15:00 -4°C° 0.3 mm 5 m/S 735 mmHg 91%
    16:00 -4°C° 0.3 mm 5 m/S 734 mmHg 93%
    17:00 -5°C° 0.1 mm 5 m/S 734 mmHg 92%
    18:00 -5°C° 0.1 mm 5 m/S 734 mmHg 91%
    19:00 -5°C° 0.1 mm 4 m/S 733 mmHg 90%
    20:00 -5°C° 0 mm 4 m/S 733 mmHg 90%
    21:00 -5°C° 0 mm 4 m/S 733 mmHg 89%
    22:00 -5°C° 0 mm 4 m/S 733 mmHg 89%
    23:00 -5°C° 0 mm 4 m/S 733 mmHg 91%

    Morgen, 25 Februar, Dienstag

    Zeit Temperatur Niederschläge Wind Luftdruck Luftfeuchtigkeit
    00:00 -5°C° 0 mm 3 m/S 734 mmHg 92%
    01:00 -5°C° 0 mm 3 m/S 734 mmHg 94%
    02:00 -5°C° 0 mm 3 m/S 734 mmHg 93%
    03:00 -6°C° 0 mm 3 m/S 735 mmHg 93%
    04:00 -5°C° 0 mm 2 m/S 735 mmHg 92%
    05:00 -6°C° 0 mm 2 m/S 736 mmHg 93%
    06:00 -6°C° 0 mm 2 m/S 736 mmHg 93%
    07:00 -6°C° 0 mm 2 m/S 736 mmHg 94%
    08:00 -5°C° 0 mm 2 m/S 736 mmHg 92%
    09:00 -5°C° 0 mm 3 m/S 736 mmHg 90%
    10:00 -4°C° 0 mm 3 m/S 737 mmHg 87%
    11:00 -2°C° 0 mm 3 m/S 737 mmHg 86%
    12:00 -1°C° 0 mm 3 m/S 737 mmHg 85%
    13:00 -1°C° 0 mm 3 m/S 737 mmHg 84%
    14:00 -1°C° 0 mm 3 m/S 737 mmHg 84%
    15:00 -1°C° 0 mm 3 m/S 737 mmHg 83%
    16:00 -1°C° 0 mm 3 m/S 737 mmHg 83%
    17:00 -2°C° 0 mm 3 m/S 737 mmHg 86%
    18:00 -2°C° 0 mm 3 m/S 736 mmHg 89%
    19:00 -3°C° 0 mm 2 m/S 736 mmHg 92%
    20:00 -5°C° 0 mm 3 m/S 736 mmHg 93%
    21:00 -6°C° 0 mm 3 m/S 736 mmHg 94%
    22:00 -7°C° 0 mm 3 m/S 736 mmHg 96%
    23:00 -6°C° 0 mm 3 m/S 735 mmHg 95%

    übermorgen, 26 Februar, Mittwoch

    Zeit Temperatur Niederschläge Wind Luftdruck Luftfeuchtigkeit
    00:00 -6°C° 0 mm 3 m/S 735 mmHg 95%
    01:00 -5°C° 0 mm 3 m/S 734 mmHg 94%
    02:00 -5°C° 0 mm 3 m/S 734 mmHg 93%
    03:00 -4°C° 0 mm 4 m/S 733 mmHg 93%
    04:00 -4°C° 0 mm 4 m/S 733 mmHg 92%
    05:00 -4°C° 0 mm 4 m/S 732 mmHg 92%
    06:00 -4°C° 0 mm 4 m/S 731 mmHg 92%
    07:00 -4°C° 0 mm 4 m/S 730 mmHg 93%
    08:00 -4°C° 0 mm 4 m/S 730 mmHg 92%
    09:00 -3°C° 0 mm 4 m/S 729 mmHg 92%
    10:00 -4°C° 0 mm 5 m/S 728 mmHg 92%
    11:00 -3°C° 1 mm 4 m/S 728 mmHg 93%
    12:00 -4°C° 1 mm 4 m/S 727 mmHg 94%
    13:00 -4°C° 1 mm 4 m/S 726 mmHg 95%
    14:00 -4°C° 0.9 mm 3 m/S 726 mmHg 95%
    15:00 -2°C° 0.9 mm 3 m/S 726 mmHg 96%
    16:00 -2°C° 0.9 mm 2 m/S 725 mmHg 96%
    17:00 -3°C° 0.1 mm 2 m/S 725 mmHg 97%
    18:00 -1°C° 0.1 mm 1 m/S 725 mmHg 97%
    19:00 -3°C° 0.1 mm 0 m/S 725 mmHg 98%
    20:00 -2°C° 0.1 mm 1 m/S 725 mmHg 97%
    21:00 -2°C° 0.1 mm 1 m/S 725 mmHg 97%
    22:00 -2°C° 0.1 mm 1 m/S 725 mmHg 97%
    23:00 -4°C° 0 mm 2 m/S 726 mmHg 95%

    27 Februar, Donnerstag

    Zeit Temperatur Niederschläge Wind Luftdruck Luftfeuchtigkeit
    00:00 -5°C° 0 mm 3 m/S 726 mmHg 93%
    01:00 -5°C° 0 mm 4 m/S 726 mmHg 92%
    02:00 -5°C° 0 mm 4 m/S 727 mmHg 91%
    03:00 -5°C° 0 mm 4 m/S 728 mmHg 89%
    04:00 -5°C° 0 mm 5 m/S 729 mmHg 88%
    05:00 -5°C° 0 mm 5 m/S 729 mmHg 88%
    06:00 -5°C° 0 mm 5 m/S 730 mmHg 87%
    07:00 -6°C° 0 mm 5 m/S 731 mmHg 87%
    08:00 -6°C° 0 mm 5 m/S 731 mmHg 86%
    09:00 -6°C° 0 mm 5 m/S 732 mmHg 86%
    10:00 -7°C° 0 mm 5 m/S 732 mmHg 85%
    11:00 -6°C° 0 mm 5 m/S 733 mmHg 83%
    12:00 -5°C° 0 mm 5 m/S 733 mmHg 80%
    13:00 -2°C° 0 mm 5 m/S 733 mmHg 77%
    14:00 -4°C° 0 mm 5 m/S 734 mmHg 81%
    15:00 -4°C° 0 mm 5 m/S 734 mmHg 84%
    16:00 -4°C° 0 mm 5 m/S 734 mmHg 88%
    17:00 -3°C° 0 mm 4 m/S 735 mmHg 88%
    18:00 -4°C° 0 mm 4 m/S 735 mmHg 89%
    19:00 -4°C° 0 mm 4 m/S 736 mmHg 90%
    20:00 -4°C° 0 mm 3 m/S 736 mmHg 91%
    21:00 -4°C° 0 mm 3 m/S 737 mmHg 92%
    22:00 -3°C° 0 mm 2 m/S 737 mmHg 92%
    23:00 -2°C° 0 mm 2 m/S 737 mmHg 93%

    28 Februar, Freitag

    Zeit Temperatur Niederschläge Wind Luftdruck Luftfeuchtigkeit
    00:00 -2°C° 0 mm 3 m/S 738 mmHg 93%
    01:00 -1°C° 0 mm 3 m/S 738 mmHg 93%
    02:00 -1°C° 0 mm 3 m/S 738 mmHg 93%
    03:00 -2°C° 0 mm 3 m/S 738 mmHg 92%
    04:00 -2°C° 0 mm 3 m/S 738 mmHg 92%
    05:00 -2°C° 0 mm 2 m/S 738 mmHg 93%
    06:00 -2°C° 0 mm 2 m/S 739 mmHg 93%
    07:00 -3°C° 0 mm 2 m/S 739 mmHg 93%
    08:00 -2°C° 0.1 mm 3 m/S 739 mmHg 95%
    09:00 -1°C° 0.1 mm 3 m/S 739 mmHg 96%
    10:00 -1°C° 0.1 mm 4 m/S 739 mmHg 97%
    11:00 0°C° 0 mm 4 m/S 739 mmHg 95%
    12:00 0°C° 0 mm 4 m/S 739 mmHg 93%
    13:00 0°C° 0 mm 4 m/S 739 mmHg 92%
    14:00 0°C° 0 mm 4 m/S 740 mmHg 91%
    15:00 0°C° 0 mm 4 m/S 740 mmHg 91%
    16:00 0°C° 0 mm 4 m/S 741 mmHg 91%
    17:00 0°C° 0 mm 4 m/S 741 mmHg 91%
    18:00 0°C° 0 mm 3 m/S 741 mmHg 92%
    19:00 0°C° 0 mm 3 m/S 742 mmHg 92%
    20:00 -1°C° 0 mm 3 m/S 742 mmHg 92%
    21:00 -1°C° 0 mm 3 m/S 742 mmHg 92%
    22:00 -1°C° 0 mm 2 m/S 743 mmHg 92%
    23:00 -2°C° 0 mm 2 m/S 742 mmHg 91%

    29 Februar, Samstag

    Zeit Temperatur Niederschläge Wind Luftdruck Luftfeuchtigkeit
    00:00 -3°C° 0 mm 2 m/S 742 mmHg 91%
    01:00 -3°C° 0 mm 2 m/S 742 mmHg 90%
    02:00 -3°C° 0 mm 2 m/S 742 mmHg 88%
    03:00 -3°C° 0 mm 2 m/S 742 mmHg 87%
    04:00 -3°C° 0 mm 2 m/S 742 mmHg 85%
    05:00 -3°C° 0 mm 2 m/S 742 mmHg 84%
    06:00 -4°C° 0 mm 2 m/S 742 mmHg 83%
    07:00 -4°C° 0 mm 2 m/S 741 mmHg 82%
    08:00 -2°C° 0 mm 2 m/S 741 mmHg 80%
    09:00 -1°C° 0 mm 3 m/S 741 mmHg 79%
    10:00 0°C° 0 mm 3 m/S 740 mmHg 77%
    11:00 +1°C° 0 mm 3 m/S 740 mmHg 78%
    12:00 +1°C° 0 mm 3 m/S 741 mmHg 78%
    13:00 +2°C° 0 mm 3 m/S 741 mmHg 79%
    14:00 +2°C° 0 mm 3 m/S 741 mmHg 79%
    15:00 +1°C° 0 mm 3 m/S 741 mmHg 78%
    16:00 +1°C° 0 mm 3 m/S 741 mmHg 77%
    17:00 0°C° 0 mm 3 m/S 741 mmHg 79%
    18:00 -1°C° 0 mm 3 m/S 741 mmHg 80%
    19:00 -2°C° 0 mm 3 m/S 741 mmHg 82%
    20:00 -2°C° 0 mm 3 m/S 742 mmHg 85%
    21:00 -2°C° 0 mm 3 m/S 742 mmHg 88%
    22:00 -3°C° 0 mm 2 m/S 742 mmHg 91%
    23:00 -3°C° 0.2 mm 2 m/S 742 mmHg 93%
    Mehr zeigen